PIA619 EDDH-EDDF

Flight info

Callsign PIA619
Flight time N/A
Altitude 28000
Route HABFU1G HABFU Y348 MAWEQ DCT BIGGE DCT ROLIS ROLIS5A
Aircraft A330/M-SDE2E3FGHIJ1RWXY/LB2D1

Departure

Time 2026-05-07 15:00
Airport Hamburg Helmut Schmidt Airport (EDDH)

Arrival

Time N/A
Airport Frankfurt Main Airport (EDDF)
Time Latitude Longitude Altitude Speed Heading
2026-05-07 14:33 53.63334 10.00342 57 ft 0 kts 86°
2026-05-07 14:46 53.63333 10.00322 56 ft 2 kts 86°
2026-05-07 14:47 53.63332 10.00298 48 ft 7 kts 86°
2026-05-07 14:47 53.63350 10.00198 49 ft 10 kts 170°
2026-05-07 14:47 53.63360 10.00195 48 ft 0 kts 176°
2026-05-07 14:50 53.63355 10.00195 48 ft 3 kts 176°
2026-05-07 14:50 53.63301 10.00197 51 ft 12 kts 180°
2026-05-07 14:50 53.63274 10.00206 50 ft 1 kts 168°
2026-05-07 14:51 53.63253 10.00197 50 ft 7 kts 190°
2026-05-07 14:51 53.63231 10.00191 50 ft 1 kts 190°
2026-05-07 14:51 53.63207 10.00215 50 ft 7 kts 141°
2026-05-07 14:51 53.63142 10.00247 49 ft 13 kts 173°
2026-05-07 14:52 53.63047 10.00243 53 ft 14 kts 202°
2026-05-07 14:52 53.63026 10.00212 49 ft 2 kts 219°
2026-05-07 14:52 53.62999 10.00179 52 ft 9 kts 217°
2026-05-07 14:52 53.62925 10.00084 51 ft 18 kts 217°
2026-05-07 14:53 53.62903 10.00068 49 ft 4 kts 196°
2026-05-07 14:53 53.62847 10.00075 51 ft 11 kts 165°
2026-05-07 14:53 53.62835 10.00089 48 ft 0 kts 147°
2026-05-07 14:54 53.62833 10.00091 49 ft 2 kts 147°
2026-05-07 14:54 53.62793 10.00136 50 ft 11 kts 147°
2026-05-07 14:55 53.62702 10.00229 48 ft 17 kts 159°
2026-05-07 14:55 53.62597 10.00252 48 ft 8 kts 188°
2026-05-07 14:55 53.62582 10.00226 46 ft 0 kts 232°
2026-05-07 14:55 53.62580 10.00221 46 ft 2 kts 232°
2026-05-07 14:56 53.62554 10.00157 48 ft 11 kts 242°
2026-05-07 14:56 53.62563 10.00017 49 ft 14 kts 313°
2026-05-07 14:56 53.62602 9.99971 49 ft 0 kts 338°
2026-05-07 14:56 53.62603 9.99969 49 ft 0 kts 335°
2026-05-07 14:57 53.62652 9.99931 47 ft 24 kts 335°
2026-05-07 14:57 53.62668 9.99919 49 ft 0 kts 335°
2026-05-07 14:57 53.62682 9.99908 46 ft 8 kts 335°
2026-05-07 14:58 53.62761 9.99832 50 ft 11 kts 334°
2026-05-07 14:58 53.62838 9.99769 52 ft 7 kts 327°
2026-05-07 14:58 53.62840 9.99767 51 ft 0 kts 328°
2026-05-07 14:59 53.62879 9.99726 45 ft 35 kts 327°
2026-05-07 14:59 53.63369 9.99298 54 ft 125 kts 332°
2026-05-07 15:00 53.64372 9.98394 174 ft 191 kts 333°
2026-05-07 15:00 53.65677 9.97212 466 ft 233 kts 333°
2026-05-07 15:00 53.67127 9.95841 974 ft 243 kts 333°
2026-05-07 15:00 53.68621 9.94499 1607 ft 241 kts 336°
2026-05-07 15:01 53.70076 9.93271 1936 ft 235 kts 334°
2026-05-07 15:01 53.70942 9.92084 2127 ft 249 kts 314°
2026-05-07 15:01 53.71770 9.89463 2566 ft 264 kts 286°
2026-05-07 15:01 53.71816 9.86331 3065 ft 272 kts 258°
2026-05-07 15:02 53.71099 9.83374 3625 ft 275 kts 240°
2026-05-07 15:02 53.69832 9.79666 4343 ft 276 kts 240°
2026-05-07 15:02 53.68964 9.76764 4859 ft 279 kts 245°
2026-05-07 15:02 53.68227 9.73737 5404 ft 279 kts 250°
2026-05-07 15:03 53.67788 9.71665 5799 ft 277 kts 251°
2026-05-07 15:03 53.67205 9.68682 6601 ft 265 kts 253°
2026-05-07 15:03 53.66660 9.65781 7462 ft 253 kts 253°
2026-05-07 15:03 53.66139 9.63006 8344 ft 243 kts 253°
2026-05-07 15:04 53.65633 9.60343 9261 ft 234 kts 253°
2026-05-07 15:04 53.64912 9.57936 10158 ft 232 kts 230°
2026-05-07 15:04 53.63630 9.56290 11044 ft 234 kts 208°
2026-05-07 15:04 53.61691 9.54611 12228 ft 238 kts 207°
2026-05-07 15:05 53.60690 9.53768 12839 ft 239 kts 207°
2026-05-07 15:05 53.59210 9.52494 13778 ft 239 kts 208°
2026-05-07 15:05 53.57742 9.51190 14639 ft 238 kts 209°
2026-05-07 15:05 53.56308 9.49890 15478 ft 236 kts 210°
2026-05-07 15:06 53.54876 9.48575 16371 ft 233 kts 210°
2026-05-07 15:06 53.53463 9.47272 17274 ft 229 kts 210°
2026-05-07 15:06 53.52080 9.45994 18205 ft 224 kts 211°
2026-05-07 15:06 53.50743 9.44724 19044 ft 218 kts 211°
2026-05-07 15:07 53.49420 9.43465 19731 ft 220 kts 211°
2026-05-07 15:07 53.48080 9.42208 20377 ft 222 kts 211°
2026-05-07 15:07 53.46725 9.40957 21050 ft 223 kts 210°
2026-05-07 15:07 53.45360 9.39713 21698 ft 223 kts 210°
2026-05-07 15:08 53.44004 9.38478 22281 ft 227 kts 210°
2026-05-07 15:08 53.42609 9.37195 22843 ft 231 kts 211°
2026-05-07 15:08 53.41199 9.35885 23429 ft 233 kts 211°
2026-05-07 15:08 53.39783 9.34560 23962 ft 234 kts 211°
2026-05-07 15:09 53.38358 9.33218 24445 ft 236 kts 211°
2026-05-07 15:09 53.36921 9.31856 24907 ft 238 kts 211°
2026-05-07 15:09 53.35474 9.30478 25388 ft 241 kts 211°
2026-05-07 15:09 53.34013 9.29082 25867 ft 243 kts 211°
2026-05-07 15:10 53.32539 9.27670 26317 ft 245 kts 211°
2026-05-07 15:10 53.31071 9.26261 26757 ft 248 kts 211°
2026-05-07 15:10 53.29572 9.24820 27222 ft 250 kts 211°
2026-05-07 15:10 53.28057 9.23362 27649 ft 252 kts 211°
2026-05-07 15:11 53.26531 9.21894 28095 ft 254 kts 211°
2026-05-07 15:11 53.24992 9.20409 28532 ft 257 kts 211°
2026-05-07 15:11 53.23437 9.18907 28964 ft 259 kts 211°
2026-05-07 15:11 53.21873 9.17394 29385 ft 262 kts 211°
2026-05-07 15:12 53.20266 9.15871 29552 ft 274 kts 210°
2026-05-07 15:12 53.18369 9.14844 29281 ft 301 kts 186°
2026-05-07 15:12 53.16298 9.15207 29926 ft 298 kts 162°
2026-05-07 15:12 53.14549 9.16792 30703 ft 287 kts 141°
2026-05-07 15:13 53.12886 9.18869 30177 ft 318 kts 150°
2026-05-07 15:13 53.10767 9.20319 29126 ft 343 kts 167°
2026-05-07 15:13 53.08336 9.20750 28391 ft 358 kts 183°
2026-05-07 15:13 53.05853 9.20332 28141 ft 359 kts 190°
2026-05-07 15:14 53.00927 9.18735 28081 ft 365 kts 193°
2026-05-07 15:14 52.98393 9.17878 28081 ft 380 kts 192°
2026-05-07 15:14 52.95765 9.16861 28081 ft 396 kts 197°
2026-05-07 15:15 52.90624 9.13220 28082 ft 412 kts 209°
2026-05-07 15:15 52.85525 9.08603 28082 ft 424 kts 209°
2026-05-07 15:16 52.80275 9.03911 28081 ft 434 kts 209°
2026-05-07 15:16 52.74886 8.99188 28084 ft 442 kts 208°
2026-05-07 15:17 52.69441 8.94455 28087 ft 449 kts 208°
2026-05-07 15:17 52.63879 8.89634 28088 ft 454 kts 208°
2026-05-07 15:18 52.58262 8.84775 28096 ft 458 kts 208°
2026-05-07 15:18 52.52593 8.79884 28098 ft 462 kts 208°
2026-05-07 15:19 52.46891 8.74978 28102 ft 464 kts 208°
2026-05-07 15:19 52.41200 8.70098 28092 ft 465 kts 208°
2026-05-07 15:20 52.35460 8.65189 28091 ft 465 kts 208°
2026-05-07 15:20 52.29681 8.60415 28090 ft 466 kts 204°
2026-05-07 15:21 52.23593 8.57476 28088 ft 456 kts 190°
2026-05-07 15:21 52.17402 8.56507 28088 ft 445 kts 185°
2026-05-07 15:22 52.11297 8.55691 28081 ft 436 kts 186°
2026-05-07 15:22 52.05307 8.54777 28082 ft 429 kts 186°
2026-05-07 15:23 51.99414 8.53829 28083 ft 423 kts 186°
2026-05-07 15:23 51.93592 8.52889 28081 ft 418 kts 186°
2026-05-07 15:24 51.87829 8.51966 28080 ft 414 kts 186°
2026-05-07 15:24 51.82162 8.51063 28079 ft 411 kts 186°
2026-05-07 15:25 51.76490 8.50162 28078 ft 408 kts 187°
2026-05-07 15:25 51.70849 8.49270 28075 ft 406 kts 187°
2026-05-07 15:26 51.65236 8.48387 28074 ft 404 kts 187°
2026-05-07 15:26 51.59665 8.47512 28073 ft 403 kts 187°
2026-05-07 15:27 51.54128 8.46646 28072 ft 401 kts 187°
2026-05-07 15:27 51.48579 8.45778 28069 ft 400 kts 187°
2026-05-07 15:28 51.43047 8.44918 28065 ft 399 kts 187°
2026-05-07 15:28 51.37529 8.44059 28060 ft 398 kts 187°
2026-05-07 15:29 51.32075 8.42770 28061 ft 395 kts 196°
2026-05-07 15:29 51.27005 8.39624 28052 ft 393 kts 206°
2026-05-07 15:30 51.22047 8.36019 28053 ft 388 kts 206°
2026-05-07 15:30 51.17188 8.32589 28044 ft 376 kts 205°
2026-05-07 15:31 51.12463 8.29326 28036 ft 365 kts 205°
2026-05-07 15:31 51.07866 8.26167 28031 ft 355 kts 205°
2026-05-07 15:32 51.03388 8.23095 28023 ft 346 kts 205°
2026-05-07 15:32 50.99048 8.20118 28009 ft 338 kts 205°
2026-05-07 15:33 50.94769 8.17190 27998 ft 332 kts 205°
2026-05-07 15:33 50.92661 8.15749 27995 ft 329 kts 205°
2026-05-07 15:33 50.90571 8.14320 27989 ft 326 kts 205°
2026-05-07 15:34 50.88500 8.12904 27985 ft 323 kts 205°
2026-05-07 15:34 50.86442 8.11501 27985 ft 321 kts 205°
2026-05-07 15:34 50.84427 8.10129 27978 ft 318 kts 205°
2026-05-07 15:34 50.82400 8.08751 27975 ft 316 kts 205°
2026-05-07 15:35 50.80381 8.07379 27973 ft 314 kts 205°
2026-05-07 15:35 50.78379 8.06019 27958 ft 313 kts 205°
2026-05-07 15:35 50.76384 8.04664 27961 ft 311 kts 205°